Location: Corralito
(10.2667°N, 66.9500°W)
Time: 19:24:36
(UTC+00:00)

Sakura Rocket - Pass Details

Date: 23 March 2023
Orbit: 476 x 1728 km, 28.7° (Epoch: 09 June)

Event Time Altitude Azimuth Distance (km) Brightness Sun altitude
Rises 22:58:33 0° 309° (NW) 2,668 7.3 -5.7°
Reaches altitude 10° 23:01:01 10° 318° (NW) 1,691 6.0 -6.3°
Maximum altitude 23:04:27 34° 25° (NNE) 799 3.5 -7.2°
Enters shadow 23:07:44 10° 92° (E) 1,629 4.5 -8.0°
